Regional Weather Roundup
Issued by NWS Albany, NY

Home | Current Version | Previous Version | Graphics & Text | Print | Product List | Glossary On
Versions: 1 2 3 4 5 6 7 8 9 10 11 12 13 14 15 16 17 18 19 20 21 22 23 24 25 26 27 28
000
ASUS41 KALY 231510
RWRALY

NEW YORK STATE HOURLY WEATHER ROUNDUP
NATIONAL WEATHER SERVICE ALBANY NY
1100 AM EDT TUE AUG 23 2016

NOTE: "FAIR" INDICATES FEW OR NO CLOUDS BELOW 12,000 FEET WITH NO
SIGNIFICANT WEATHER AND/OR NO OBSTRUCTIONS TO VISIBILITY.

NYZ032-033-038>043-046>054-057>066-NYZ062>081-082-084-231600-
EAST


CITY           SKY/WX    TMP DP  RH WIND       PRES   REMARKS
ALBANY         MOSUNNY   69  54  58 VRB5      30.31F
GLENS FALLS    SUNNY     67  56  67 SE6       30.29F
POUGHKEEPSIE   SUNNY     73  53  49 CALM      30.31F
NEWBURGH       SUNNY     68  57  68 CALM      30.35S
MONTGOMERY     SUNNY     73  57  57 VRB5      30.32F
WHITE PLAINS   SUNNY     72  49  44 NW7       30.33S
ISLIP          MOSUNNY   76  48  37 N9        30.32R
NEW YORK CITY  SUNNY     76  47  35 NW7       30.32S
CENTRAL PARK   SUNNY     74  49  41 VRB5      30.35S
$$

NYZ005>009-017-018-044>046-055-056-231600-
CENTRAL


CITY           SKY/WX    TMP DP  RH WIND       PRES   REMARKS
FULTON         SUNNY     72  57  59 SW8       30.29F
SYRACUSE       MOSUNNY   72  56  57 VRB3      30.28F
ROME           SUNNY     67  55  65 SW3       30.32S
ELMIRA         SUNNY     70  55  59 SW6       30.32F
BINGHAMTON     SUNNY     67  54  63 SW5       30.34S
MONTICELLO     SUNNY     66  54  63 W8        30.36S
$$

NYZ026>034-041>043-087-231600-
NORTH


CITY           SKY/WX    TMP DP  RH WIND       PRES   REMARKS
WATERTOWN      SUNNY     73  55  53 SW10G18   30.26S
FORT DRUM      NOT AVBL
MASSENA        SUNNY     72  54  53 SW12      30.23S
SARANAC LAKE   MOSUNNY   67  49  52 W10       30.27S
PLATTSBURGH    SUNNY     74  52  46 W7        30.22F
$$

NYZ001>004-010>016-019>021-085-231600-
WEST


CITY           SKY/WX    TMP DP  RH WIND       PRES   REMARKS
NIAGARA FALLS  MOSUNNY   78  57  48 W13       30.27S
BUFFALO        MOSUNNY   74  55  51 W14       30.28F
DUNKIRK        SUNNY     74  52  46 S9        30.30F
JAMESTOWN      SUNNY     66  52  59 SW7       30.34F
WELLSVILLE     SUNNY     69  50  50 VRB6      30.38S
ROCHESTER      MOSUNNY   75  60  59 SW10      30.28F
PENN YAN       SUNNY     73  57  57 CALM      30.32F
$$

             KEY
       WCI = WIND CHILL INDEX
       VSB = VISIBILITY
       HX  = HEAT INDEX
$$




USA.gov is the U.S. government's official web portal to all federal, state and local government web resources and services.